DEDAF EDRM-EDGS

Flight info

Callsign DEDAF
Flight time 0h 22m
Altitude 5000
Route DCT
Aircraft BT36/L-BDFGLORY/S

Departure

Time 2026-05-04 17:14
Airport Traben-Trarbach/Mont Royal Airfield (EDRM)

Arrival

Time 2026-05-04 17:37
Airport Siegerland Airport (EDGS)
Time Latitude Longitude Altitude Speed Heading
2026-05-04 16:55 49.97155 7.11151 955 ft 0 kts
2026-05-04 17:13 49.97160 7.11151 954 ft 0 kts
2026-05-04 17:14 49.96210 7.11155 1066 ft 123 kts 179°
2026-05-04 17:14 49.95385 7.11772 1363 ft 147 kts 131°
2026-05-04 17:14 49.95996 7.14249 2080 ft 162 kts 17°
2026-05-04 17:15 49.97111 7.14718 2437 ft 168 kts 14°
2026-05-04 17:15 49.99267 7.15726 3026 ft 171 kts 17°
2026-05-04 17:16 50.01575 7.17255 3001 ft 190 kts 41°
2026-05-04 17:16 50.04577 7.21408 2985 ft 194 kts 43°
2026-05-04 17:17 50.05586 7.22800 2994 ft 194 kts 43°
2026-05-04 17:17 50.08596 7.26961 2991 ft 192 kts 43°
2026-05-04 17:18 50.09586 7.28347 2983 ft 190 kts 43°
2026-05-04 17:18 50.11559 7.31108 2988 ft 190 kts 43°
2026-05-04 17:19 50.13513 7.33847 2983 ft 182 kts 43°
2026-05-04 17:19 50.15269 7.36400 2974 ft 165 kts 43°
2026-05-04 17:20 50.16923 7.38823 2976 ft 161 kts 43°
2026-05-04 17:20 50.18550 7.41208 2975 ft 160 kts 42°
2026-05-04 17:20 50.19348 7.42411 2976 ft 160 kts 43°
2026-05-04 17:21 50.20941 7.44846 2973 ft 160 kts 41°
2026-05-04 17:21 50.22651 7.47032 2980 ft 156 kts 37°
2026-05-04 17:22 50.23484 7.48075 2980 ft 155 kts 37°
2026-05-04 17:22 50.24323 7.49128 2977 ft 154 kts 37°
2026-05-04 17:23 50.26853 7.52299 2972 ft 157 kts 37°
2026-05-04 17:23 50.27705 7.53362 2976 ft 156 kts 37°
2026-05-04 17:23 50.29401 7.55488 2976 ft 156 kts 37°
2026-05-04 17:24 50.30252 7.56554 2978 ft 158 kts 37°
2026-05-04 17:24 50.32827 7.59839 2992 ft 169 kts 39°
2026-05-04 17:25 50.33775 7.61002 2983 ft 175 kts 39°
2026-05-04 17:25 50.35613 7.63499 3010 ft 172 kts 34°
2026-05-04 17:26 50.37536 7.65746 2978 ft 169 kts 34°
2026-05-04 17:26 50.40136 7.68971 2974 ft 149 kts 37°
2026-05-04 17:27 50.41718 7.71010 2979 ft 145 kts 37°
2026-05-04 17:27 50.43281 7.73024 2977 ft 145 kts 37°
2026-05-04 17:28 50.44841 7.75032 2982 ft 143 kts 37°
2026-05-04 17:29 50.47139 7.78058 2982 ft 144 kts 40°
2026-05-04 17:29 50.49354 7.81237 2980 ft 143 kts 40°
2026-05-04 17:30 50.51363 7.84708 2986 ft 145 kts 49°
2026-05-04 17:31 50.52618 7.87164 2984 ft 149 kts 49°
2026-05-04 17:31 50.54985 7.91681 3000 ft 195 kts 49°
2026-05-04 17:32 50.56741 7.95014 2999 ft 199 kts 49°
2026-05-04 17:33 50.60040 7.98849 2998 ft 198 kts 30°
2026-05-04 17:33 50.61211 7.99984 2998 ft 198 kts 30°
2026-05-04 17:34 50.64863 8.03028 2992 ft 198 kts 20°
2026-05-04 17:34 50.66143 8.03840 2996 ft 199 kts 20°
2026-05-04 17:35 50.69282 8.05982 2764 ft 127 kts 31°
2026-05-04 17:35 50.70637 8.07373 2508 ft 116 kts 20°
2026-05-04 17:35 50.71384 8.07883 2474 ft 115 kts 26°
2026-05-04 17:36 50.71989 8.08713 2439 ft 116 kts 41°
2026-05-04 17:36 50.72232 8.09637 2287 ft 95 kts 114°
2026-05-04 17:36 50.71689 8.09917 2109 ft 89 kts 203°
2026-05-04 17:36 50.71141 8.09381 2142 ft 95 kts 230°
2026-05-04 17:37 50.70666 8.08720 1967 ft 85 kts 224°
2026-05-04 17:37 50.70356 8.08335 1957 ft 23 kts 220°
2026-05-04 17:37 50.70382 8.08313 1957 ft 10 kts 32°
2026-05-04 17:37 50.70457 8.08426 1955 ft 14 kts 40°
2026-05-04 17:38 50.70521 8.08374 1957 ft 16 kts 308°
2026-05-04 17:38 50.70556 8.08300 1957 ft 0 kts 306°
2026-05-04 17:39 50.70567 8.08276 1957 ft 9 kts 306°
2026-05-04 17:40 50.70611 8.08183 1957 ft 12 kts 309°
2026-05-04 17:40 50.70671 8.08064 1958 ft 15 kts 307°
2026-05-04 17:40 50.70742 8.07922 1958 ft 18 kts 308°
2026-05-04 17:40 50.70749 8.07789 1958 ft 8 kts 189°
2026-05-04 17:41 50.70699 8.07775 1958 ft 10 kts 213°
2026-05-04 17:41 50.70686 8.07760 1958 ft 4 kts 219°
2026-05-04 17:41 50.70665 8.07725 1958 ft 2 kts 184°
2026-05-04 17:41 50.70660 8.07727 1958 ft 0 kts 157°